Regional Weather Roundup
Issued by NWS

Home | Current Version | Previous Version | Text Only | Print | Product List | Glossary On
Versions: 1 2 3 4 5 6 7 8 9 10 11 12 13 14 15 16 17 18 19 20 21 22 23 24 25 26 27
000
ASUS46 KSEW 251810
RWRWA

WASHINGTON REGIONAL WEATHER ROUNDUP
NATIONAL WEATHER SERVICE SEATTLE WA
1000 AM PST SAT FEB 25 2017

NOTE:"FAIR" INDICATES FEW OR NO CLOUDS BELOW 12,000 FEET WITH NO
SIGNIFICANT WEATHER AND/OR OBSTRUCTIONS TO VISIBILITY.

WAZ507-509-555>559-251900-
SEATTLE, TACOMA, EVERETT, AND VICINITY

CITY           SKY/WX    TMP DP  RH WIND       PRES   REMARKS
EVERETT        CLOUDY    36  29  75 CALM      30.23F
6HR MIN TEMP:  30; 6HR MAX TEMP:  36; 6HR PCP: TRACE;

BOEING FIELD   PTSUNNY   37  31  78 S5        30.26F
6HR MIN TEMP:  29; 6HR MAX TEMP:  37;

RENTON         CLOUDY    36  30  79 S3        30.26F
6HR MIN TEMP:  31; 6HR MAX TEMP:  36;

SEATAC AIRPORT PTSUNNY   37  31  78 CALM      30.25S
6HR MIN TEMP:  32; 6HR MAX TEMP:  37;

JBLM-MCCHORD   PTSUNNY   37  36  96 CALM      30.25F
6HR MIN TEMP:  27; 6HR MAX TEMP:  37;

PUYALLUP         N/A     39  34  81 CALM      30.24F
BREMERTON      CLOUDY    36  34  93 CALM      30.27F
6HR MIN TEMP:  25; 6HR MAX TEMP:  36;

JBLM-FT LEWIS  SUNNY     36  36  99 CALM      30.25S
6HR MIN TEMP:  26; 6HR MAX TEMP:  36;

TACOMA NARROWS CLOUDY    36  36 100 CALM      30.26S FOG
6HR MIN TEMP:  30; 6HR MAX TEMP:  36;

$$

WAZ001-503-506-510-514-515-251900-
NORTH INTERIOR

CITY           SKY/WX    TMP DP  RH WIND       PRES   REMARKS
BELLINGHAM     SUNNY     38  35  89 VRB7      30.22F
6HR MIN TEMP:  25; 6HR MAX TEMP:  39;

FRIDAY HARBOR  LGT RAIN  40  32  73 CALM      30.24F
6HR MIN TEMP:  35; 6HR MAX TEMP:  41; 6HR PCP: TRACE;

EASTSOUND      PTSUNNY   39  32  75 SW5       30.21F
PORT ANGELES   MOSUNNY   39  33  79 W3        30.23F
6HR MIN TEMP:  29; 6HR MAX TEMP:  39;

EDIZ HOOK      FAIR      41  31  66 CALM      30.24F
6HR MIN TEMP:  36; 6HR MAX TEMP:  42;

PORT TOWNSEND  PTSUNNY   39  37  93 CALM      30.25F
NAS WHIDBEY    CLOUDY    41  31  67 E6        30.27F
6HR MIN TEMP:  35; 6HR MAX TEMP:  41;

ARLINGTON      CLOUDY    34  25  69 S3        30.27F
6HR MIN TEMP:  25; 6HR MAX TEMP:  34;

BURLINGTON     CLOUDY    36  30  80 CALM      30.24F
$$

WAZ020-022-039-040-504-511-512-251900-
SOUTHWEST INTERIOR

CITY           SKY/WX    TMP DP  RH WIND       PRES   REMARKS
SHELTON        PTSUNNY   35  33  92 CALM      30.24S
6HR MIN TEMP:  23; 6HR MAX TEMP:  35;

OLYMPIA        FOG       33  32  96 CALM      30.27S VSB 1/4
6HR MIN TEMP:  26; 6HR MAX TEMP:  33;

CHEHALIS       FOG       32  32 100 CALM      30.27S VSB<1/4
KELSO          CLOUDY    35  34  96 CALM      30.28F
6HR MIN TEMP:  29; 6HR MAX TEMP:  35;

VANCOUVER      FOG       34  34 100 S3        30.27S VSB 1/2
6HR MIN TEMP:  30; 6HR MAX TEMP:  36;

SCAPPOOSE, OR  FOG       33  33 100 CALM      30.27S VSB 1/4
6HR MIN TEMP:  28; 6HR MAX TEMP:  33;

PORTLAND, OR   FOG       34  33  96 N3        30.27S VSB 3/4
6HR MIN TEMP:  31; 6HR MAX TEMP:  35;

$$

WAZ021-516-517-251900-
WASHINGTON COAST

CITY           SKY/WX    TMP DP  RH WIND       PRES   REMARKS
FORKS          MOSUNNY   36  34  92 CALM      30.24F
6HR MIN TEMP:  23; 6HR MAX TEMP:  36;

HOQUIAM        SUNNY     36  35  96 E3        30.27S
6HR MIN TEMP:  27; 6HR MAX TEMP:  36;

ASTORIA, OR    FOG       35  33  92 NW3       30.27R VSB 1/4
6HR MIN TEMP:  29; 6HR MAX TEMP:  35;

$$

WAZ019-023-024-040-567>569-251900-
CASCADE MOUNTAINS AND COLUMBIA GORGE

CITY           SKY/WX    TMP DP  RH WIND       PRES   REMARKS
STAMPEDE PASS  NOT AVBL
TROUTDALE, OR  SUNNY     39  31  72 VRB3      30.26F
6HR MIN TEMP:  35; 6HR MAX TEMP:  40;

THE DALLES, OR MOSUNNY   35  26  69 CALM      30.26F
6HR MIN TEMP:  24; 6HR MAX TEMP:  35;

$$

WAZ026-027-041>044-520-521-251900-
EAST SLOPES

CITY           SKY/WX    TMP DP  RH WIND       PRES   REMARKS
OMAK           SUNNY     24  16  71 CALM      30.16F
6HR MIN TEMP:  10; 6HR MAX TEMP:  24;

WENATCHEE      SUNNY     26  16  65 CALM      30.15F
6HR MIN TEMP:  16; 6HR MAX TEMP:  26;

ELLENSBURG     SUNNY     24  15  68 CALM      30.15F
6HR MIN TEMP:  10; 6HR MAX TEMP:  24;

YAKIMA         SUNNY     32  19  58 CALM      30.19F
6HR MIN TEMP:  16; 6HR MAX TEMP:  32;

SUNNYSIDE ARPT CLEAR     29  23  76 CALM      30.21F
6HR MIN TEMP:  20; 6HR MAX TEMP:  29;

$$

WAZ028-034-035-251900-
COLUMBIA BASIN

CITY           SKY/WX    TMP DP  RH WIND       PRES   REMARKS
EPHRATA        SUNNY     27  17  66 SE3       30.15F
6HR MIN TEMP:  16; 6HR MAX TEMP:  28;

MOSES LAKE     SUNNY     27  20  75 CALM      30.17F
6HR MIN TEMP:  15; 6HR MAX TEMP:  27;

PASCO          SUNNY     35  26  69 E5        30.23F
6HR MIN TEMP:  21; 6HR MAX TEMP:  35;

HERMISTON, OR  SUNNY     35  29  78 SW3       30.21F
6HR MIN TEMP:  19; 6HR MAX TEMP:  36;

$$

WAZ036>038-251900-
NORTHEAST WASHINGTON

CITY           SKY/WX    TMP DP  RH WIND       PRES   REMARKS
SPOKANE GEIGER MOSUNNY   26  24  92 SW6       30.08S
6HR MIN TEMP:  10; 6HR MAX TEMP:  26;

SPOKANE FELTS  FOG       23  23 100 CALM      30.11F VSB 1/2
6HR MIN TEMP:  21; 6HR MAX TEMP:  24;

FAIRCHILD AFB  SUNNY     26  26 100 W7        30.06F
6HR MIN TEMP:   8; 6HR MAX TEMP:  26; 6HR PCP: TRACE;

COEURDALENE,ID CLOUDY    29  25  85 SW7       30.08F FOG
6HR MIN TEMP:  16; 6HR MAX TEMP:  32;

DEER PARK      FOG       20  19  96 S6        30.09F VSB 1/4
6HR MIN TEMP:   8; 6HR MAX TEMP:  20;

$$

WAZ029>033-251900-
SOUTHEAST WASHINGTON

CITY           SKY/WX    TMP DP  RH WIND       PRES   REMARKS
PULLMAN        MOSUNNY   31  24  75 W10       30.11F WCI  22
6HR MIN TEMP:  21; 6HR MAX TEMP:  31;

LEWISTON, ID   LGT RAIN  33  22  63 CALM      30.15F
6HR MIN TEMP:  22; 6HR MAX TEMP:  34; 6HR PCP: TRACE;

WALLA WALLA    SUNNY     32  25  75 SW7       30.19S
6HR MIN TEMP:  26; 6HR MAX TEMP:  33;

PENDLETON, OR  MOSUNNY   32  24  72 S5        30.17F
6HR MIN TEMP:  23; 6HR MAX TEMP:  32;

$$




USA.gov is the U.S. government's official web portal to all federal, state and local government web resources and services.